Location: Great Snoring
(52.8667°N, 0.8833°E)
Time: 19:19:30
(UTC+00:00)

PSLV R/B - Pass Details

Date: 19 May 2025
Orbit: 400 x 430 km, 97.7° (Epoch: 23 June)

Event Time Altitude Azimuth Distance (km) Brightness Sun altitude
Rises 19:23:31 0° 97° (E) 2,369 6.5 3.1°
Enters shadow 20:20:26 -74° 169° (S) 12,677 10.6 -3.9°
Maximum altitude 20:58:30 57° 72° (ENE) 503 3.5 -8.0°
